Regional Weather Roundup
Issued by NWS

Home | Current Version | Previous Version | Graphics & Text | Print | Product List | Glossary On
Versions: 1 2 3 4 5 6 7 8 9 10 11 12 13 14 15 16 17 18 19 20 21 22 23 24 25 26 27 28 29 30 31 32 33 34 35 36 37 38 39 40 41 42 43 44 45 46 47 48 49 50
000
ASUS43 KLMK 220510
RWRKY
KENTUCKY REGIONAL WEATHER ROUNDUP
NATIONAL WEATHER SERVICE LOUISVILLE KY
100 AM EDT SAT JUL 22 2017

NOTE "FAIR" INDICATES FEW OR NO CLOUDS BELOW 12,000 FEET
WITH NO SIGNIFICANT WEATHER AND/OR OBSTRUCTIONS TO VISIBILITY.

KYZ001>023-026-027-061>063-070>075-220600-
WESTERN AND SOUTH CENTRAL KENTUCKY

CITY           SKY/WX    TMP DP  RH WIND       PRES   REMARKS
PADUCAH        CLEAR     83  75  77 SW5       29.94F HX  90
HENDERSON      NOT AVBL
OWENSBORO      CLEAR     81  77  88 S5        29.95F
HOPKINSVILLE   CLEAR     82  77  84 SW3       29.98S HX  90
BOWLING GREEN  CLEAR     82  76  81 CALM      29.99S
GLASGOW        CLEAR     80  73  81 CALM      30.00S
$$

KYZ024-025-028>034-038-045-046-053-220600-
NORTH CENTRAL KENTUCKY

CITY           SKY/WX    TMP DP  RH WIND       PRES   REMARKS
LOUISVILLE/SDF PTCLDY    87  74  64 S8        29.94F HX  95
LOUISVILLE/LOU MOCLDY    84  77  79 S5        29.96F HX  94
FORT KNOX      CLEAR     79  74  85 S5        29.96F
$$

KYZ035>037-039>044-047>052-055>060-089>105-220600-
NORTHEAST KENTUCKY

CITY           SKY/WX    TMP DP  RH WIND       PRES   REMARKS
LEXINGTON      CLEAR     80  72  76 S6        30.00S
COVINGTON      CLOUDY    75  74  96 S3        29.96F
FRANKFORT      CLEAR     80  72  76 SW6       29.97F
$$

KYZ054-064>069-076>088-106>120-220600-
SOUTHEAST KENTUCKY

CITY           SKY/WX    TMP DP  RH WIND       PRES   REMARKS
JACKSON        CLEAR     78  72  81 CALM      30.03R
LONDON         CLEAR     76  72  87 CALM      30.03S
SOMERSET       CLEAR     73  73 100 CALM      30.03S
MIDDLESBORO    CLEAR     74  73  96 CALM      30.05S
MONTICELLO     CLEAR     73  72  96 W12       30.04S
$$





USA.gov is the U.S. government's official web portal to all federal, state and local government web resources and services.